Year,Month,Day,Hour,Minute,Value (Times are PST for temperature in C)
2013,08,26,00,00,13.80
2013,08,26,00,01,13.80
2013,08,26,00,02,13.80
2013,08,26,00,03,13.80
2013,08,26,00,04,13.80
2013,08,26,00,05,13.80
2013,08,26,00,06,13.80
2013,08,26,00,07,13.70
2013,08,26,00,08,13.70
2013,08,26,00,09,13.70
2013,08,26,00,10,13.70
2013,08,26,00,11,13.60
2013,08,26,00,12,13.60
2013,08,26,00,13,13.60
2013,08,26,00,14,13.60
2013,08,26,00,15,13.60
2013,08,26,00,16,13.60
2013,08,26,00,17,13.60
2013,08,26,00,18,13.60
2013,08,26,00,19,13.50
2013,08,26,00,20,13.50
2013,08,26,00,21,13.50
2013,08,26,00,22,13.40
2013,08,26,00,23,13.40
2013,08,26,00,24,13.40
2013,08,26,00,25,13.40
2013,08,26,00,26,13.40
2013,08,26,00,27,13.30
2013,08,26,00,28,13.30
2013,08,26,00,29,13.30
2013,08,26,00,30,13.30
2013,08,26,00,31,13.30
2013,08,26,00,32,13.30
2013,08,26,00,33,13.20
2013,08,26,00,34,13.20
2013,08,26,00,35,13.20
2013,08,26,00,36,13.20
2013,08,26,00,37,13.20
2013,08,26,00,38,13.20
2013,08,26,00,39,13.20
2013,08,26,00,40,13.20
2013,08,26,00,41,13.20
2013,08,26,00,42,13.20
2013,08,26,00,43,13.20
2013,08,26,00,44,13.20
2013,08,26,00,45,13.20
2013,08,26,00,46,13.10
2013,08,26,00,47,13.10
2013,08,26,00,48,13.10
2013,08,26,00,49,13.10
2013,08,26,00,50,13.00
2013,08,26,00,51,13.00
2013,08,26,00,52,13.00
2013,08,26,00,53,13.00
2013,08,26,00,54,12.90
2013,08,26,00,55,12.90
2013,08,26,00,56,12.90
2013,08,26,00,57,12.90
2013,08,26,00,58,12.80
2013,08,26,00,59,12.80
2013,08,26,01,00,12.80
2013,08,26,01,01,12.80
2013,08,26,01,02,12.80
2013,08,26,01,03,12.80
2013,08,26,01,04,12.80
2013,08,26,01,05,12.80
2013,08,26,01,06,12.80
2013,08,26,01,07,12.80
2013,08,26,01,08,12.80
2013,08,26,01,09,12.80
2013,08,26,01,10,12.70
2013,08,26,01,11,12.70
2013,08,26,01,12,12.70
2013,08,26,01,13,12.70
2013,08,26,01,14,12.70
2013,08,26,01,15,12.70
2013,08,26,01,16,12.60
2013,08,26,01,17,12.60
2013,08,26,01,18,12.60
2013,08,26,01,19,12.60
2013,08,26,01,20,12.50
2013,08,26,01,21,12.50
2013,08,26,01,22,12.40
2013,08,26,01,23,12.40
2013,08,26,01,24,12.40
2013,08,26,01,25,12.40
2013,08,26,01,26,12.40
2013,08,26,01,27,12.40
2013,08,26,01,28,12.40
2013,08,26,01,29,12.30
2013,08,26,01,30,12.30
2013,08,26,01,31,12.30
2013,08,26,01,32,12.30
2013,08,26,01,33,12.30
2013,08,26,01,34,12.30
2013,08,26,01,35,12.30
2013,08,26,01,36,12.40
2013,08,26,01,37,12.40
2013,08,26,01,38,12.40
2013,08,26,01,39,12.40
2013,08,26,01,40,12.40
2013,08,26,01,41,12.40
2013,08,26,01,42,12.40
2013,08,26,01,43,12.40
2013,08,26,01,44,12.40
2013,08,26,01,45,12.40
2013,08,26,01,46,12.40
2013,08,26,01,47,12.40
2013,08,26,01,48,12.40
2013,08,26,01,49,12.40
2013,08,26,01,50,12.40
2013,08,26,01,51,12.40
2013,08,26,01,52,12.40
2013,08,26,01,53,12.30
2013,08,26,01,54,12.30
2013,08,26,01,55,12.30
2013,08,26,01,56,12.20
2013,08,26,01,57,12.20
2013,08,26,01,58,12.20
2013,08,26,01,59,12.10
2013,08,26,02,00,12.10
2013,08,26,02,01,12.10
2013,08,26,02,02,12.00
2013,08,26,02,03,12.00
2013,08,26,02,04,12.00
2013,08,26,02,05,11.90
2013,08,26,02,06,11.90
2013,08,26,02,07,11.90
2013,08,26,02,08,11.90
2013,08,26,02,09,11.90
2013,08,26,02,10,11.80
2013,08,26,02,11,11.80
2013,08,26,02,12,11.80
2013,08,26,02,13,11.80
2013,08,26,02,14,11.80
2013,08,26,02,15,11.80
2013,08,26,02,16,11.80
2013,08,26,02,17,11.80
2013,08,26,02,18,11.80
2013,08,26,02,19,11.80
2013,08,26,02,20,11.80
2013,08,26,02,21,11.80
2013,08,26,02,22,11.70
2013,08,26,02,23,11.70
2013,08,26,02,24,11.70
2013,08,26,02,25,11.70
2013,08,26,02,26,11.60
2013,08,26,02,27,11.60
2013,08,26,02,28,11.60
2013,08,26,02,29,11.60
2013,08,26,02,30,11.60
2013,08,26,02,31,11.60
2013,08,26,02,32,11.60
2013,08,26,02,33,11.50
2013,08,26,02,34,11.50
2013,08,26,02,35,11.50
2013,08,26,02,36,11.50
2013,08,26,02,37,11.50
2013,08,26,02,38,11.40
2013,08,26,02,39,11.40
2013,08,26,02,40,11.40
2013,08,26,02,41,11.40
2013,08,26,02,42,11.50
2013,08,26,02,43,11.40
2013,08,26,02,44,11.40
2013,08,26,02,45,11.40
2013,08,26,02,46,11.30
2013,08,26,02,47,11.30
2013,08,26,02,48,11.30
2013,08,26,02,49,11.30
2013,08,26,02,50,11.30
2013,08,26,02,51,11.30
2013,08,26,02,52,11.30
2013,08,26,02,53,11.20
2013,08,26,02,54,11.20
2013,08,26,02,55,11.20
2013,08,26,02,56,11.20
2013,08,26,02,57,11.20
2013,08,26,02,58,11.20
2013,08,26,02,59,11.10
2013,08,26,03,00,11.10
2013,08,26,03,01,11.10
2013,08,26,03,02,11.10
2013,08,26,03,03,11.10
2013,08,26,03,04,11.10
2013,08,26,03,05,11.10
2013,08,26,03,06,11.10
2013,08,26,03,07,11.00
2013,08,26,03,08,11.00
2013,08,26,03,09,11.00
2013,08,26,03,10,11.00
2013,08,26,03,11,10.90
2013,08,26,03,12,10.90
2013,08,26,03,13,10.90
2013,08,26,03,14,10.90
2013,08,26,03,15,10.90
2013,08,26,03,16,10.90
2013,08,26,03,17,10.90
2013,08,26,03,18,10.80
2013,08,26,03,19,10.80
2013,08,26,03,20,10.80
2013,08,26,03,21,10.80
2013,08,26,03,22,10.80
2013,08,26,03,23,10.80
2013,08,26,03,24,10.80
2013,08,26,03,25,10.80
2013,08,26,03,26,10.80
2013,08,26,03,27,10.70
2013,08,26,03,28,10.70
2013,08,26,03,29,10.70
2013,08,26,03,30,10.70
2013,08,26,03,31,10.70
2013,08,26,03,32,10.70
2013,08,26,03,33,10.70
2013,08,26,03,34,10.70
2013,08,26,03,35,10.70
2013,08,26,03,36,10.70
2013,08,26,03,37,10.70
2013,08,26,03,38,10.60
2013,08,26,03,39,10.60
2013,08,26,03,40,10.60
2013,08,26,03,41,10.60
2013,08,26,03,42,10.60
2013,08,26,03,43,10.60
2013,08,26,03,44,10.60
2013,08,26,03,45,10.50
2013,08,26,03,46,10.50
2013,08,26,03,47,10.50
2013,08,26,03,48,10.50
2013,08,26,03,49,10.50
2013,08,26,03,50,10.50
2013,08,26,03,51,10.50
2013,08,26,03,52,10.50
2013,08,26,03,53,10.50
2013,08,26,03,54,10.50
2013,08,26,03,55,10.50
2013,08,26,03,56,10.50
2013,08,26,03,57,10.50
2013,08,26,03,58,10.50
2013,08,26,03,59,10.60
2013,08,26,04,00,10.60
2013,08,26,04,01,10.60
2013,08,26,04,02,10.50
2013,08,26,04,03,10.50
2013,08,26,04,04,10.50
2013,08,26,04,05,10.50
2013,08,26,04,06,10.40
2013,08,26,04,07,10.40
2013,08,26,04,08,10.40
2013,08,26,04,09,10.40
2013,08,26,04,10,10.30
2013,08,26,04,11,10.30
2013,08,26,04,12,10.30
2013,08,26,04,13,10.30
2013,08,26,04,14,10.30
2013,08,26,04,15,10.20
2013,08,26,04,16,10.20
2013,08,26,04,17,10.20
2013,08,26,04,18,10.20
2013,08,26,04,19,10.20
2013,08,26,04,20,10.20
2013,08,26,04,21,10.20
2013,08,26,04,22,10.20
2013,08,26,04,23,10.20
2013,08,26,04,24,10.20
2013,08,26,04,25,10.20
2013,08,26,04,26,10.20
2013,08,26,04,27,10.20
2013,08,26,04,28,10.20
2013,08,26,04,29,10.20
2013,08,26,04,30,10.20
2013,08,26,04,31,10.20
2013,08,26,04,32,10.10
2013,08,26,04,33,10.10
2013,08,26,04,34,10.10
2013,08,26,04,35,10.10
2013,08,26,04,36,10.10
2013,08,26,04,37,10.20
2013,08,26,04,38,10.20
2013,08,26,04,39,10.20
2013,08,26,04,40,10.20
2013,08,26,04,41,10.20
2013,08,26,04,42,10.10
2013,08,26,04,43,10.10
2013,08,26,04,44,10.10
2013,08,26,04,45,10.10
2013,08,26,04,46,10.00
2013,08,26,04,47,10.00
2013,08,26,04,48,10.00
2013,08,26,04,49,10.00
2013,08,26,04,50,9.90
2013,08,26,04,51,9.90
2013,08,26,04,52,9.90
2013,08,26,04,53,9.90
2013,08,26,04,54,9.90
2013,08,26,04,55,9.90
2013,08,26,04,56,9.90
2013,08,26,04,57,9.90
2013,08,26,04,58,9.90
2013,08,26,04,59,9.90
2013,08,26,05,00,9.90
2013,08,26,05,01,9.90
2013,08,26,05,02,9.90
2013,08,26,05,03,9.90
2013,08,26,05,04,9.90
2013,08,26,05,05,9.80
2013,08,26,05,06,9.80
2013,08,26,05,07,9.80
2013,08,26,05,08,9.80
2013,08,26,05,09,9.80
2013,08,26,05,10,9.80
2013,08,26,05,11,9.80
2013,08,26,05,12,9.80
2013,08,26,05,13,9.80
2013,08,26,05,14,9.80
2013,08,26,05,15,9.80
2013,08,26,05,16,9.80
2013,08,26,05,17,9.80
2013,08,26,05,18,9.80
2013,08,26,05,19,9.80
2013,08,26,05,20,9.80
2013,08,26,05,21,9.80
2013,08,26,05,22,9.80
2013,08,26,05,23,9.80
2013,08,26,05,24,9.70
2013,08,26,05,25,9.70
2013,08,26,05,26,9.70
2013,08,26,05,27,9.70
2013,08,26,05,28,9.70
2013,08,26,05,29,9.70
2013,08,26,05,30,9.70
2013,08,26,05,31,9.80
2013,08,26,05,32,9.80
2013,08,26,05,33,9.80
2013,08,26,05,34,9.90
2013,08,26,05,35,9.90
2013,08,26,05,36,9.90
2013,08,26,05,37,9.90
2013,08,26,05,38,9.90
2013,08,26,05,39,9.90
2013,08,26,05,40,9.90
2013,08,26,05,41,9.90
2013,08,26,05,42,9.90
2013,08,26,05,43,9.90
2013,08,26,05,44,9.90
2013,08,26,05,45,9.90
2013,08,26,05,46,9.90
2013,08,26,05,47,9.90
2013,08,26,05,48,9.90
2013,08,26,05,49,9.90
2013,08,26,05,50,9.90
2013,08,26,05,51,9.90
2013,08,26,05,52,9.90
2013,08,26,05,53,9.90
2013,08,26,05,54,9.90
2013,08,26,05,55,10.00
2013,08,26,05,56,10.00
2013,08,26,05,57,10.00
2013,08,26,05,58,10.00
2013,08,26,05,59,10.00
2013,08,26,06,00,10.10
2013,08,26,06,01,10.10
2013,08,26,06,02,10.00
2013,08,26,06,03,10.00
2013,08,26,06,04,10.00
2013,08,26,06,05,10.00
2013,08,26,06,06,10.00
2013,08,26,06,07,10.00
2013,08,26,06,08,9.90
2013,08,26,06,09,9.90
2013,08,26,06,10,9.90
2013,08,26,06,11,9.90
2013,08,26,06,12,9.90
2013,08,26,06,13,9.90
2013,08,26,06,14,9.90
2013,08,26,06,15,9.90
2013,08,26,06,16,9.90
2013,08,26,06,17,9.90
2013,08,26,06,18,9.90
2013,08,26,06,19,9.90
2013,08,26,06,20,9.90
2013,08,26,06,21,9.90
2013,08,26,06,22,9.90
2013,08,26,06,23,9.90
2013,08,26,06,24,9.90
2013,08,26,06,25,9.90
2013,08,26,06,26,9.90
2013,08,26,06,27,9.90
2013,08,26,06,28,9.90
2013,08,26,06,29,9.90
2013,08,26,06,30,9.90
2013,08,26,06,31,9.90
2013,08,26,06,32,9.90
2013,08,26,06,33,9.90
2013,08,26,06,34,9.90
2013,08,26,06,35,9.90
2013,08,26,06,36,9.90
2013,08,26,06,37,9.90
2013,08,26,06,38,10.00
2013,08,26,06,39,10.00
2013,08,26,06,40,10.00
2013,08,26,06,41,10.10
2013,08,26,06,42,10.00
2013,08,26,06,43,10.00
2013,08,26,06,44,10.00
2013,08,26,06,45,10.00
2013,08,26,06,46,10.00
2013,08,26,06,47,10.00
2013,08,26,06,48,10.00
2013,08,26,06,49,10.00
2013,08,26,06,50,10.00
2013,08,26,06,51,10.00
2013,08,26,06,52,9.90
2013,08,26,06,53,9.90
2013,08,26,06,54,9.90
2013,08,26,06,55,9.90
2013,08,26,06,56,9.90
2013,08,26,06,57,9.90
2013,08,26,06,58,9.90
2013,08,26,06,59,9.90
2013,08,26,07,00,10.00
2013,08,26,07,01,10.00
2013,08,26,07,02,10.10
2013,08,26,07,03,10.10
2013,08,26,07,04,10.20
2013,08,26,07,05,10.20
2013,08,26,07,06,10.10
2013,08,26,07,07,10.10
2013,08,26,07,08,10.10
2013,08,26,07,09,10.00
2013,08,26,07,10,10.00
2013,08,26,07,11,9.90
2013,08,26,07,12,9.90
2013,08,26,07,13,9.90
2013,08,26,07,14,9.90
2013,08,26,07,15,9.90
2013,08,26,07,16,9.90
2013,08,26,07,17,9.90
2013,08,26,07,18,9.90
2013,08,26,07,19,10.00
2013,08,26,07,20,10.00
2013,08,26,07,21,10.00
2013,08,26,07,22,10.00
2013,08,26,07,23,10.00
2013,08,26,07,24,10.00
2013,08,26,07,25,10.00
2013,08,26,07,26,10.00
2013,08,26,07,27,10.00
2013,08,26,07,28,10.10
2013,08,26,07,29,10.10
2013,08,26,07,30,10.10
2013,08,26,07,31,10.10
2013,08,26,07,32,10.10
2013,08,26,07,33,10.10
2013,08,26,07,34,10.10
2013,08,26,07,35,10.10
2013,08,26,07,36,10.20
2013,08,26,07,37,10.20
2013,08,26,07,38,10.20
2013,08,26,07,39,10.20
2013,08,26,07,40,10.20
2013,08,26,07,41,10.30
2013,08,26,07,42,10.30
2013,08,26,07,43,10.30
2013,08,26,07,44,10.30
2013,08,26,07,45,10.40
2013,08,26,07,46,10.40
2013,08,26,07,47,10.40
2013,08,26,07,48,10.40
2013,08,26,07,49,10.40
2013,08,26,07,50,10.50
2013,08,26,07,51,10.50
2013,08,26,07,52,10.50
2013,08,26,07,53,10.60
2013,08,26,07,54,10.60
2013,08,26,07,55,10.60
2013,08,26,07,56,10.70
2013,08,26,07,57,10.70
2013,08,26,07,58,10.80
2013,08,26,07,59,10.80
2013,08,26,08,00,10.80
2013,08,26,08,01,10.90
2013,08,26,08,02,10.90
2013,08,26,08,03,11.00
2013,08,26,08,04,11.10
2013,08,26,08,05,11.10
2013,08,26,08,06,11.20
2013,08,26,08,07,11.30
2013,08,26,08,08,11.40
2013,08,26,08,09,11.50
2013,08,26,08,10,11.60
2013,08,26,08,11,11.70
2013,08,26,08,12,11.80
2013,08,26,08,13,11.90
2013,08,26,08,14,12.00
2013,08,26,08,15,12.10
2013,08,26,08,16,12.20
2013,08,26,08,17,12.30
2013,08,26,08,18,12.40
2013,08,26,08,19,12.50
2013,08,26,08,20,12.60
2013,08,26,08,21,12.70
2013,08,26,08,22,12.80
2013,08,26,08,23,12.80
2013,08,26,08,24,12.90
2013,08,26,08,25,12.90
2013,08,26,08,26,12.90
2013,08,26,08,27,12.90
2013,08,26,08,28,13.00
2013,08,26,08,29,12.90
2013,08,26,08,30,13.00
2013,08,26,08,31,13.00
2013,08,26,08,32,13.00
2013,08,26,08,33,13.10
2013,08,26,08,34,13.10
2013,08,26,08,35,13.20
2013,08,26,08,36,13.20
2013,08,26,08,37,13.30
2013,08,26,08,38,13.40
2013,08,26,08,39,13.40
2013,08,26,08,40,13.50
2013,08,26,08,41,13.60
2013,08,26,08,42,13.70
2013,08,26,08,43,13.80
2013,08,26,08,44,13.90
2013,08,26,08,45,14.00
2013,08,26,08,46,14.10
2013,08,26,08,47,14.00
2013,08,26,08,48,14.00
2013,08,26,08,49,14.00
2013,08,26,08,50,13.90
2013,08,26,08,51,13.90
2013,08,26,08,52,13.90
2013,08,26,08,53,13.90
2013,08,26,08,54,13.90
2013,08,26,08,55,13.90
2013,08,26,08,56,13.90
2013,08,26,08,57,14.00
2013,08,26,08,58,14.10
2013,08,26,08,59,14.10
2013,08,26,09,00,14.20
2013,08,26,09,01,14.10
2013,08,26,09,02,14.20
2013,08,26,09,03,14.20
2013,08,26,09,04,14.30
2013,08,26,09,05,14.30
2013,08,26,09,06,14.40
2013,08,26,09,07,14.40
2013,08,26,09,08,14.40
2013,08,26,09,09,14.40
2013,08,26,09,10,14.30
2013,08,26,09,11,14.30
2013,08,26,09,12,14.30
2013,08,26,09,13,14.30
2013,08,26,09,14,14.30
2013,08,26,09,15,14.20
2013,08,26,09,16,14.20
2013,08,26,09,17,14.10
2013,08,26,09,18,14.10
2013,08,26,09,19,14.10
2013,08,26,09,20,14.10
2013,08,26,09,21,14.20
2013,08,26,09,22,14.20
2013,08,26,09,23,14.20
2013,08,26,09,24,14.10
2013,08,26,09,25,14.00
2013,08,26,09,26,13.90
2013,08,26,09,27,13.80
2013,08,26,09,28,13.80
2013,08,26,09,29,13.70
2013,08,26,09,30,13.70
2013,08,26,09,31,13.70
2013,08,26,09,32,13.70
2013,08,26,09,33,13.70
2013,08,26,09,34,13.70
2013,08,26,09,35,13.80
2013,08,26,09,36,13.80
2013,08,26,09,37,13.90
2013,08,26,09,38,13.90
2013,08,26,09,39,13.90
2013,08,26,09,40,13.90
2013,08,26,09,41,13.90
2013,08,26,09,42,13.80
2013,08,26,09,43,13.80
2013,08,26,09,44,13.80
2013,08,26,09,45,13.80
2013,08,26,09,46,13.80
2013,08,26,09,47,13.80
2013,08,26,09,48,13.90
2013,08,26,09,49,13.90
2013,08,26,09,50,14.00
2013,08,26,09,51,14.10
2013,08,26,09,52,14.10
2013,08,26,09,53,14.10
2013,08,26,09,54,14.10
2013,08,26,09,55,14.10
2013,08,26,09,56,14.20
2013,08,26,09,57,14.20
2013,08,26,09,58,14.30
2013,08,26,09,59,14.30
2013,08,26,10,00,14.40
2013,08,26,10,01,14.50
2013,08,26,10,02,14.50
2013,08,26,10,03,14.50
2013,08,26,10,04,14.50
2013,08,26,10,05,14.60
2013,08,26,10,06,14.60
2013,08,26,10,07,14.60
2013,08,26,10,08,14.60
2013,08,26,10,09,14.60
2013,08,26,10,10,14.60
2013,08,26,10,11,14.70
2013,08,26,10,12,14.70
2013,08,26,10,13,14.80
2013,08,26,10,14,15.00
2013,08,26,10,15,15.00
2013,08,26,10,16,15.00
2013,08,26,10,17,15.00
2013,08,26,10,18,15.00
2013,08,26,10,19,15.00
2013,08,26,10,20,15.00
2013,08,26,10,21,15.10
2013,08,26,10,22,15.20
2013,08,26,10,23,15.20
2013,08,26,10,24,15.10
2013,08,26,10,25,15.00
2013,08,26,10,26,15.00
2013,08,26,10,27,15.00
2013,08,26,10,28,15.00
2013,08,26,10,29,15.00
2013,08,26,10,30,15.00
2013,08,26,10,31,14.90
2013,08,26,10,32,14.90
2013,08,26,10,33,14.80
2013,08,26,10,34,14.80
2013,08,26,10,35,14.80
2013,08,26,10,36,14.70
2013,08,26,10,37,14.70
2013,08,26,10,38,14.70
2013,08,26,10,39,14.70
2013,08,26,10,40,14.70
2013,08,26,10,41,14.60
2013,08,26,10,42,14.60
2013,08,26,10,43,14.60
2013,08,26,10,44,14.50
2013,08,26,10,45,14.50
2013,08,26,10,46,14.60
2013,08,26,10,47,14.60
2013,08,26,10,48,14.70
2013,08,26,10,49,14.70
2013,08,26,10,50,14.80
2013,08,26,10,51,14.90
2013,08,26,10,52,15.00
2013,08,26,10,53,15.00
2013,08,26,10,54,15.00
2013,08,26,10,55,15.20
2013,08,26,10,56,15.40
2013,08,26,10,57,15.60
2013,08,26,10,58,15.70
2013,08,26,10,59,15.70
2013,08,26,11,00,15.60
2013,08,26,11,01,15.50
2013,08,26,11,02,15.40
2013,08,26,11,03,15.40
2013,08,26,11,04,15.30
2013,08,26,11,05,15.30
2013,08,26,11,06,15.40
2013,08,26,11,07,15.40
2013,08,26,11,08,15.50
2013,08,26,11,09,15.60
2013,08,26,11,10,15.60
2013,08,26,11,11,15.60
2013,08,26,11,12,15.60
2013,08,26,11,13,15.70
2013,08,26,11,14,15.70
2013,08,26,11,15,15.70
2013,08,26,11,16,15.70
2013,08,26,11,17,15.70
2013,08,26,11,18,15.70
2013,08,26,11,19,15.70
2013,08,26,11,20,15.70
2013,08,26,11,21,15.60
2013,08,26,11,22,15.60
2013,08,26,11,23,15.60
2013,08,26,11,24,15.60
2013,08,26,11,25,15.60
2013,08,26,11,26,15.70
2013,08,26,11,27,15.70
2013,08,26,11,28,15.70
2013,08,26,11,29,15.70
2013,08,26,11,30,15.70
2013,08,26,11,31,15.70
2013,08,26,11,32,15.80
2013,08,26,11,33,15.80
2013,08,26,11,34,15.90
2013,08,26,11,35,15.90
2013,08,26,11,36,16.00
2013,08,26,11,37,16.00
2013,08,26,11,38,16.00
2013,08,26,11,39,16.00
2013,08,26,11,40,15.90
2013,08,26,11,41,15.90
2013,08,26,11,42,15.90
2013,08,26,11,43,15.80
2013,08,26,11,44,15.80
2013,08,26,11,45,15.80
2013,08,26,11,46,15.80
2013,08,26,11,47,15.80
2013,08,26,11,48,15.90
2013,08,26,11,49,15.90
2013,08,26,11,50,15.90
2013,08,26,11,51,16.10
2013,08,26,11,52,16.20
2013,08,26,11,53,16.40
2013,08,26,11,54,16.50
2013,08,26,11,55,16.70
2013,08,26,11,56,16.80
2013,08,26,11,57,16.90
2013,08,26,11,58,17.00
2013,08,26,11,59,17.00
2013,08,26,12,00,16.90
2013,08,26,12,01,16.80
2013,08,26,12,02,16.80
2013,08,26,12,03,16.80
2013,08,26,12,04,16.80
2013,08,26,12,05,16.90
2013,08,26,12,06,16.90
2013,08,26,12,07,17.00
2013,08,26,12,08,17.10
2013,08,26,12,09,17.20
2013,08,26,12,10,17.30
2013,08,26,12,11,17.40
2013,08,26,12,12,17.50
2013,08,26,12,13,17.60
2013,08,26,12,14,17.70
2013,08,26,12,15,17.70
2013,08,26,12,16,17.80
2013,08,26,12,17,17.90
2013,08,26,12,18,17.90
2013,08,26,12,19,18.00
2013,08,26,12,20,18.10
2013,08,26,12,21,18.20
2013,08,26,12,22,18.30
2013,08,26,12,23,18.40
2013,08,26,12,24,18.40
2013,08,26,12,25,18.50
2013,08,26,12,26,18.60
2013,08,26,12,27,18.70
2013,08,26,12,28,18.80
2013,08,26,12,29,18.80
2013,08,26,12,30,18.80
2013,08,26,12,31,18.90
2013,08,26,12,32,18.90
2013,08,26,12,33,18.90
2013,08,26,12,34,19.00
2013,08,26,12,35,19.00
2013,08,26,12,36,19.10
2013,08,26,12,37,19.10
2013,08,26,12,38,19.10
2013,08,26,12,39,19.10
2013,08,26,12,40,19.10
2013,08,26,12,41,19.00
2013,08,26,12,42,19.00
2013,08,26,12,43,18.90
2013,08,26,12,44,18.90
2013,08,26,12,45,18.80
2013,08,26,12,46,18.70
2013,08,26,12,47,18.70
2013,08,26,12,48,18.70
2013,08,26,12,49,18.60
2013,08,26,12,50,18.60
2013,08,26,12,51,18.60
2013,08,26,12,52,18.50
2013,08,26,12,53,18.50
2013,08,26,12,54,18.40
2013,08,26,12,55,18.40
2013,08,26,12,56,18.40
2013,08,26,12,57,18.40
2013,08,26,12,58,18.40
2013,08,26,12,59,18.40
2013,08,26,13,00,18.40
2013,08,26,13,01,18.40
2013,08,26,13,02,18.40
2013,08,26,13,03,18.40
2013,08,26,13,04,18.40
2013,08,26,13,05,18.50
2013,08,26,13,06,18.50
2013,08,26,13,07,18.60
2013,08,26,13,08,18.60
2013,08,26,13,09,18.60
2013,08,26,13,10,18.70
2013,08,26,13,11,18.70
2013,08,26,13,12,18.80
2013,08,26,13,13,18.80
2013,08,26,13,14,18.80
2013,08,26,13,15,18.80
2013,08,26,13,16,18.70
2013,08,26,13,17,18.70
2013,08,26,13,18,18.70
2013,08,26,13,19,18.70
2013,08,26,13,20,18.70
2013,08,26,13,21,18.70
2013,08,26,13,22,18.70
2013,08,26,13,23,18.80
2013,08,26,13,24,18.80
2013,08,26,13,25,18.80
2013,08,26,13,26,18.80
2013,08,26,13,27,18.80
2013,08,26,13,28,18.80
2013,08,26,13,29,18.80
2013,08,26,13,30,18.80
2013,08,26,13,31,18.80
2013,08,26,13,32,18.80
2013,08,26,13,33,18.80
2013,08,26,13,34,18.80
2013,08,26,13,35,18.80
2013,08,26,13,36,18.90
2013,08,26,13,37,18.90
2013,08,26,13,38,18.90
2013,08,26,13,39,18.90
2013,08,26,13,40,18.90
2013,08,26,13,41,18.80
2013,08,26,13,42,18.80
2013,08,26,13,43,18.80
2013,08,26,13,44,18.80
2013,08,26,13,45,18.80
2013,08,26,13,46,18.80
2013,08,26,13,47,18.80
2013,08,26,13,48,18.80
2013,08,26,13,49,18.80
2013,08,26,13,50,18.80
2013,08,26,13,51,18.80
2013,08,26,13,52,18.80
2013,08,26,13,53,18.80
2013,08,26,13,54,18.90
2013,08,26,13,55,18.90
2013,08,26,13,56,18.90
2013,08,26,13,57,18.90
2013,08,26,13,58,19.00
2013,08,26,13,59,18.90
2013,08,26,14,00,18.90
2013,08,26,14,01,19.00
2013,08,26,14,02,19.00
2013,08,26,14,03,19.00
2013,08,26,14,04,19.10
2013,08,26,14,05,19.20
2013,08,26,14,06,19.20
2013,08,26,14,07,19.30
2013,08,26,14,08,19.30
2013,08,26,14,09,19.30
2013,08,26,14,10,19.40
2013,08,26,14,11,19.40
2013,08,26,14,12,19.40
2013,08,26,14,13,19.50
2013,08,26,14,14,19.50
2013,08,26,14,15,19.50
2013,08,26,14,16,19.60
2013,08,26,14,17,19.50
2013,08,26,14,18,19.50
2013,08,26,14,19,19.50
2013,08,26,14,20,19.50
2013,08,26,14,21,19.60
2013,08,26,14,22,19.60
2013,08,26,14,23,19.70
2013,08,26,14,24,19.70
2013,08,26,14,25,19.70
2013,08,26,14,26,19.80
2013,08,26,14,27,19.90
2013,08,26,14,28,20.00
2013,08,26,14,29,20.10
2013,08,26,14,30,20.10
2013,08,26,14,31,20.10
2013,08,26,14,32,20.10
2013,08,26,14,33,20.20
2013,08,26,14,34,20.20
2013,08,26,14,35,20.30
2013,08,26,14,36,20.20
2013,08,26,14,37,20.30
2013,08,26,14,38,20.30
2013,08,26,14,39,20.40
2013,08,26,14,40,20.60
2013,08,26,14,41,20.60
2013,08,26,14,42,20.70
2013,08,26,14,43,20.70
2013,08,26,14,44,20.70
2013,08,26,14,45,20.70
2013,08,26,14,46,20.70
2013,08,26,14,47,20.70
2013,08,26,14,48,20.70
2013,08,26,14,49,20.70
2013,08,26,14,50,20.70
2013,08,26,14,51,20.60
2013,08,26,14,52,20.50
2013,08,26,14,53,20.40
2013,08,26,14,54,20.30
2013,08,26,14,55,20.30
2013,08,26,14,56,20.20
2013,08,26,14,57,20.20
2013,08,26,14,58,20.10
2013,08,26,14,59,20.10
2013,08,26,15,00,20.00
2013,08,26,15,01,20.00
2013,08,26,15,02,19.90
2013,08,26,15,03,19.90
2013,08,26,15,04,19.90
2013,08,26,15,05,19.90
2013,08,26,15,06,19.90
2013,08,26,15,07,19.90
2013,08,26,15,08,19.90
2013,08,26,15,09,19.90
2013,08,26,15,10,19.80
2013,08,26,15,11,19.80
2013,08,26,15,12,19.80
2013,08,26,15,13,19.80
2013,08,26,15,14,19.70
2013,08,26,15,15,19.70
2013,08,26,15,16,19.60
2013,08,26,15,17,19.50
2013,08,26,15,18,19.40
2013,08,26,15,19,19.40
2013,08,26,15,20,19.40
2013,08,26,15,21,19.40
2013,08,26,15,22,19.40
2013,08,26,15,23,19.40
2013,08,26,15,24,19.50
2013,08,26,15,25,19.50
2013,08,26,15,26,19.50
2013,08,26,15,27,19.50
2013,08,26,15,28,19.40
2013,08,26,15,29,19.50
2013,08,26,15,30,19.50
2013,08,26,15,31,19.50
2013,08,26,15,32,19.50
2013,08,26,15,33,19.50
2013,08,26,15,34,19.60
2013,08,26,15,35,19.60
2013,08,26,15,36,19.50
2013,08,26,15,37,19.60
2013,08,26,15,38,19.50
2013,08,26,15,39,19.50
2013,08,26,15,40,19.50
2013,08,26,15,41,19.40
2013,08,26,15,42,19.40
2013,08,26,15,43,19.40
2013,08,26,15,44,19.40
2013,08,26,15,45,19.40
2013,08,26,15,46,19.40
2013,08,26,15,47,19.40
2013,08,26,15,48,19.50
2013,08,26,15,49,19.50
2013,08,26,15,50,19.50
2013,08,26,15,51,19.50
2013,08,26,15,52,19.40
2013,08,26,15,53,19.40
2013,08,26,15,54,19.40
2013,08,26,15,55,19.50
2013,08,26,15,56,19.50
2013,08,26,15,57,19.60
2013,08,26,15,58,19.60
2013,08,26,15,59,19.60
2013,08,26,16,00,19.50
2013,08,26,16,01,19.50
2013,08,26,16,02,19.50
2013,08,26,16,03,19.50
2013,08,26,16,04,19.50
2013,08,26,16,05,19.50
2013,08,26,16,06,19.50
2013,08,26,16,07,19.40
2013,08,26,16,08,19.40
2013,08,26,16,09,19.40
2013,08,26,16,10,19.40
2013,08,26,16,11,19.40
2013,08,26,16,12,19.40
2013,08,26,16,13,19.40
2013,08,26,16,14,19.40
2013,08,26,16,15,19.30
2013,08,26,16,16,19.30
2013,08,26,16,17,19.30
2013,08,26,16,18,19.40
2013,08,26,16,19,19.40
2013,08,26,16,20,19.40
2013,08,26,16,21,19.40
2013,08,26,16,22,19.30
2013,08,26,16,23,19.30
2013,08,26,16,24,19.30
2013,08,26,16,25,19.30
2013,08,26,16,26,19.30
2013,08,26,16,27,19.30
2013,08,26,16,28,19.30
2013,08,26,16,29,19.30
2013,08,26,16,30,19.30
2013,08,26,16,31,19.30
2013,08,26,16,32,19.30
2013,08,26,16,33,19.20
2013,08,26,16,34,19.20
2013,08,26,16,35,19.10
2013,08,26,16,36,19.10
2013,08,26,16,37,19.10
2013,08,26,16,38,19.00
2013,08,26,16,39,18.90
2013,08,26,16,40,18.90
2013,08,26,16,41,18.80
2013,08,26,16,42,18.80
2013,08,26,16,43,18.70
2013,08,26,16,44,18.70
2013,08,26,16,45,18.70
2013,08,26,16,46,18.70
2013,08,26,16,47,18.70
2013,08,26,16,48,18.60
2013,08,26,16,49,18.50
2013,08,26,16,50,18.40
2013,08,26,16,51,18.30
2013,08,26,16,52,18.30
2013,08,26,16,53,18.30
2013,08,26,16,54,18.30
2013,08,26,16,55,18.30
2013,08,26,16,56,18.20
2013,08,26,16,57,18.20
2013,08,26,16,58,18.10
2013,08,26,16,59,18.10
2013,08,26,17,00,18.10
2013,08,26,17,01,18.00
2013,08,26,17,02,18.00
2013,08,26,17,03,18.00
2013,08,26,17,04,18.00
2013,08,26,17,05,17.90
2013,08,26,17,06,17.90
2013,08,26,17,07,17.90
2013,08,26,17,08,17.90
2013,08,26,17,09,17.90
2013,08,26,17,10,17.90
2013,08,26,17,11,17.90
2013,08,26,17,12,17.90
2013,08,26,17,13,17.90
2013,08,26,17,14,17.90
2013,08,26,17,15,17.90
2013,08,26,17,16,17.90
2013,08,26,17,17,18.00
2013,08,26,17,18,18.00
2013,08,26,17,19,18.00
2013,08,26,17,20,18.00
2013,08,26,17,21,18.00
2013,08,26,17,22,17.90
2013,08,26,17,23,17.90
2013,08,26,17,24,17.90